Year,Month,Day,Hour,Minute,Value (Times are PST for temperature in C)
2015,05,29,00,00,14.80
2015,05,29,00,01,14.80
2015,05,29,00,02,14.80
2015,05,29,00,03,14.80
2015,05,29,00,04,14.80
2015,05,29,00,05,14.80
2015,05,29,00,06,14.80
2015,05,29,00,07,14.80
2015,05,29,00,08,14.80
2015,05,29,00,09,14.80
2015,05,29,00,10,14.80
2015,05,29,00,11,14.80
2015,05,29,00,12,14.80
2015,05,29,00,13,14.80
2015,05,29,00,14,14.90
2015,05,29,00,15,14.90
2015,05,29,00,16,14.90
2015,05,29,00,17,14.90
2015,05,29,00,18,14.90
2015,05,29,00,19,14.90
2015,05,29,00,20,14.90
2015,05,29,00,21,14.90
2015,05,29,00,22,15.00
2015,05,29,00,23,15.00
2015,05,29,00,24,14.90
2015,05,29,00,25,14.90
2015,05,29,00,26,14.80
2015,05,29,00,27,14.80
2015,05,29,00,28,14.70
2015,05,29,00,29,14.70
2015,05,29,00,30,14.60
2015,05,29,00,31,14.60
2015,05,29,00,32,14.60
2015,05,29,00,33,14.50
2015,05,29,00,34,14.50
2015,05,29,00,35,14.50
2015,05,29,00,36,14.50
2015,05,29,00,37,14.50
2015,05,29,00,38,14.40
2015,05,29,00,39,14.40
2015,05,29,00,40,14.40
2015,05,29,00,41,14.40
2015,05,29,00,42,14.40
2015,05,29,00,43,14.40
2015,05,29,00,44,14.40
2015,05,29,00,45,14.40
2015,05,29,00,46,14.40
2015,05,29,00,47,14.50
2015,05,29,00,48,14.50
2015,05,29,00,49,14.50
2015,05,29,00,50,14.50
2015,05,29,00,51,14.60
2015,05,29,00,52,14.60
2015,05,29,00,53,14.60
2015,05,29,00,54,14.60
2015,05,29,00,55,14.60
2015,05,29,00,56,14.60
2015,05,29,00,57,14.60
2015,05,29,00,58,14.70
2015,05,29,00,59,14.70
2015,05,29,01,00,14.80
2015,05,29,01,01,14.80
2015,05,29,01,02,14.90
2015,05,29,01,03,15.00
2015,05,29,01,04,15.10
2015,05,29,01,05,15.20
2015,05,29,01,06,15.20
2015,05,29,01,07,15.30
2015,05,29,01,08,15.30
2015,05,29,01,09,15.40
2015,05,29,01,10,15.50
2015,05,29,01,11,15.50
2015,05,29,01,12,15.50
2015,05,29,01,13,15.60
2015,05,29,01,14,15.60
2015,05,29,01,15,15.70
2015,05,29,01,16,15.70
2015,05,29,01,17,15.70
2015,05,29,01,18,15.70
2015,05,29,01,19,15.80
2015,05,29,01,20,15.80
2015,05,29,01,21,15.80
2015,05,29,01,22,15.80
2015,05,29,01,23,15.80
2015,05,29,01,24,15.80
2015,05,29,01,25,15.80
2015,05,29,01,26,15.80
2015,05,29,01,27,15.80
2015,05,29,01,28,15.80
2015,05,29,01,29,15.80
2015,05,29,01,30,15.80
2015,05,29,01,31,15.80
2015,05,29,01,32,15.80
2015,05,29,01,33,15.80
2015,05,29,01,34,15.80
2015,05,29,01,35,15.70
2015,05,29,01,36,15.70
2015,05,29,01,37,15.70
2015,05,29,01,38,15.70
2015,05,29,01,39,15.70
2015,05,29,01,40,15.70
2015,05,29,01,41,15.70
2015,05,29,01,42,15.70
2015,05,29,01,43,15.70
2015,05,29,01,44,15.70
2015,05,29,01,45,15.70
2015,05,29,01,46,15.70
2015,05,29,01,47,15.70
2015,05,29,01,48,15.70
2015,05,29,01,49,15.70
2015,05,29,01,50,15.70
2015,05,29,01,51,15.70
2015,05,29,01,52,15.70
2015,05,29,01,53,15.70
2015,05,29,01,54,15.70
2015,05,29,01,55,15.70
2015,05,29,01,56,15.70
2015,05,29,01,57,15.70
2015,05,29,01,58,15.60
2015,05,29,01,59,15.60
2015,05,29,02,00,15.60
2015,05,29,02,01,15.60
2015,05,29,02,02,15.70
2015,05,29,02,03,15.70
2015,05,29,02,04,15.70
2015,05,29,02,05,15.70
2015,05,29,02,06,15.70
2015,05,29,02,07,15.70
2015,05,29,02,08,15.70
2015,05,29,02,09,15.70
2015,05,29,02,10,15.70
2015,05,29,02,11,15.70
2015,05,29,02,12,15.70
2015,05,29,02,13,15.70
2015,05,29,02,14,15.70
2015,05,29,02,15,15.70
2015,05,29,02,16,15.70
2015,05,29,02,17,15.70
2015,05,29,02,18,15.80
2015,05,29,02,19,15.80
2015,05,29,02,20,15.80
2015,05,29,02,21,15.80
2015,05,29,02,22,15.80
2015,05,29,02,23,15.80
2015,05,29,02,24,15.80
2015,05,29,02,25,15.80
2015,05,29,02,26,15.80
2015,05,29,02,27,15.80
2015,05,29,02,28,15.80
2015,05,29,02,29,15.80
2015,05,29,02,30,15.80
2015,05,29,02,31,15.80
2015,05,29,02,32,15.80
2015,05,29,02,33,15.80
2015,05,29,02,34,15.80
2015,05,29,02,35,15.80
2015,05,29,02,36,15.80
2015,05,29,02,37,15.80
2015,05,29,02,38,15.80
2015,05,29,02,39,15.80
2015,05,29,02,40,15.80
2015,05,29,02,41,15.80
2015,05,29,02,42,15.80
2015,05,29,02,43,15.80
2015,05,29,02,44,15.80
2015,05,29,02,45,15.80
2015,05,29,02,46,15.80
2015,05,29,02,47,15.80
2015,05,29,02,48,15.80
2015,05,29,02,49,15.80
2015,05,29,02,50,15.80
2015,05,29,02,51,15.70
2015,05,29,02,52,15.70
2015,05,29,02,53,15.70
2015,05,29,02,54,15.70
2015,05,29,02,55,15.70
2015,05,29,02,56,15.70
2015,05,29,02,57,15.70
2015,05,29,02,58,15.70
2015,05,29,02,59,15.70
2015,05,29,03,00,15.70
2015,05,29,03,01,15.70
2015,05,29,03,02,15.70
2015,05,29,03,03,15.70
2015,05,29,03,04,15.70
2015,05,29,03,05,15.60
2015,05,29,03,06,15.60
2015,05,29,03,07,15.60
2015,05,29,03,08,15.60
2015,05,29,03,09,15.60
2015,05,29,03,10,15.60
2015,05,29,03,11,15.60
2015,05,29,03,12,15.60
2015,05,29,03,13,15.50
2015,05,29,03,14,15.50
2015,05,29,03,15,15.50
2015,05,29,03,16,15.50
2015,05,29,03,17,15.50
2015,05,29,03,18,15.40
2015,05,29,03,19,15.40
2015,05,29,03,20,15.40
2015,05,29,03,21,15.40
2015,05,29,03,22,15.30
2015,05,29,03,23,15.30
2015,05,29,03,24,15.30
2015,05,29,03,25,15.30
2015,05,29,03,26,15.20
2015,05,29,03,27,15.20
2015,05,29,03,28,15.20
2015,05,29,03,29,15.20
2015,05,29,03,30,15.20
2015,05,29,03,31,15.20
2015,05,29,03,32,15.20
2015,05,29,03,33,15.20
2015,05,29,03,34,15.20
2015,05,29,03,35,15.20
2015,05,29,03,36,15.20
2015,05,29,03,37,15.20
2015,05,29,03,38,15.20
2015,05,29,03,39,15.20
2015,05,29,03,40,15.20
2015,05,29,03,41,15.20
2015,05,29,03,42,15.10
2015,05,29,03,43,15.10
2015,05,29,03,44,15.10
2015,05,29,03,45,15.10
2015,05,29,03,46,15.10
2015,05,29,03,47,15.10
2015,05,29,03,48,15.10
2015,05,29,03,49,15.10
2015,05,29,03,50,15.10
2015,05,29,03,51,15.10
2015,05,29,03,52,15.10
2015,05,29,03,53,15.10
2015,05,29,03,54,15.10
2015,05,29,03,55,15.10
2015,05,29,03,56,15.10
2015,05,29,03,57,15.10
2015,05,29,03,58,15.10
2015,05,29,03,59,15.10
2015,05,29,04,00,15.10
2015,05,29,04,01,15.10
2015,05,29,04,02,15.10
2015,05,29,04,03,15.00
2015,05,29,04,04,15.00
2015,05,29,04,05,15.00
2015,05,29,04,06,15.00
2015,05,29,04,07,15.00
2015,05,29,04,08,15.00
2015,05,29,04,09,14.90
2015,05,29,04,10,14.90
2015,05,29,04,11,14.90
2015,05,29,04,12,14.90
2015,05,29,04,13,14.90
2015,05,29,04,14,14.90
2015,05,29,04,15,14.90
2015,05,29,04,16,14.90
2015,05,29,04,17,14.90
2015,05,29,04,18,14.90
2015,05,29,04,19,14.90
2015,05,29,04,20,14.80
2015,05,29,04,21,14.80
2015,05,29,04,22,14.80
2015,05,29,04,23,14.80
2015,05,29,04,24,14.80
2015,05,29,04,25,14.80
2015,05,29,04,26,14.70
2015,05,29,04,27,14.70
2015,05,29,04,28,14.70
2015,05,29,04,29,14.70
2015,05,29,04,30,14.70
2015,05,29,04,31,14.60
2015,05,29,04,32,14.60
2015,05,29,04,33,14.60
2015,05,29,04,34,14.60
2015,05,29,04,35,14.60
2015,05,29,04,36,14.60
2015,05,29,04,37,14.60
2015,05,29,04,38,14.60
2015,05,29,04,39,14.70
2015,05,29,04,40,14.70
2015,05,29,04,41,14.70
2015,05,29,04,42,14.70
2015,05,29,04,43,14.70
2015,05,29,04,44,14.80
2015,05,29,04,45,14.80
2015,05,29,04,46,14.80
2015,05,29,04,47,14.80
2015,05,29,04,48,14.80
2015,05,29,04,49,14.80
2015,05,29,04,50,14.80
2015,05,29,04,51,14.80
2015,05,29,04,52,14.80
2015,05,29,04,53,14.80
2015,05,29,04,54,14.80
2015,05,29,04,55,14.80
2015,05,29,04,56,14.80
2015,05,29,04,57,14.80
2015,05,29,04,58,14.80
2015,05,29,04,59,14.80
2015,05,29,05,00,14.80
2015,05,29,05,01,14.80
2015,05,29,05,02,14.80
2015,05,29,05,03,14.80
2015,05,29,05,04,14.80
2015,05,29,05,05,14.80
2015,05,29,05,06,14.80
2015,05,29,05,07,14.80
2015,05,29,05,08,14.80
2015,05,29,05,09,14.80
2015,05,29,05,10,14.70
2015,05,29,05,11,14.70
2015,05,29,05,12,14.70
2015,05,29,05,13,14.70
2015,05,29,05,14,14.70
2015,05,29,05,15,14.70
2015,05,29,05,16,14.70
2015,05,29,05,17,14.70
2015,05,29,05,18,14.70
2015,05,29,05,19,14.70
2015,05,29,05,20,14.70
2015,05,29,05,21,14.70
2015,05,29,05,22,14.70
2015,05,29,05,23,14.70
2015,05,29,05,24,14.70
2015,05,29,05,25,14.70
2015,05,29,05,26,14.70
2015,05,29,05,27,14.70
2015,05,29,05,28,14.70
2015,05,29,05,29,14.70
2015,05,29,05,30,14.70
2015,05,29,05,31,14.70
2015,05,29,05,32,14.70
2015,05,29,05,33,14.70
2015,05,29,05,34,14.70
2015,05,29,05,35,14.70
2015,05,29,05,36,14.70
2015,05,29,05,37,14.70
2015,05,29,05,38,14.70
2015,05,29,05,39,14.60
2015,05,29,05,40,14.60
2015,05,29,05,41,14.60
2015,05,29,05,42,14.60
2015,05,29,05,43,14.50
2015,05,29,05,44,14.50
2015,05,29,05,45,14.40
2015,05,29,05,46,14.40
2015,05,29,05,47,14.40
2015,05,29,05,48,14.40
2015,05,29,05,49,14.40
2015,05,29,05,50,14.40
2015,05,29,05,51,14.30
2015,05,29,05,52,14.30
2015,05,29,05,53,14.30
2015,05,29,05,54,14.30
2015,05,29,05,55,14.30
2015,05,29,05,56,14.30
2015,05,29,05,57,14.30
2015,05,29,05,58,14.30
2015,05,29,05,59,14.30
2015,05,29,06,00,14.30
2015,05,29,06,01,14.30
2015,05,29,06,02,14.30
2015,05,29,06,03,14.30
2015,05,29,06,04,14.30
2015,05,29,06,05,14.30
2015,05,29,06,06,14.30
2015,05,29,06,07,14.20
2015,05,29,06,08,14.20
2015,05,29,06,09,14.20
2015,05,29,06,10,14.20
2015,05,29,06,11,14.20
2015,05,29,06,12,14.20
2015,05,29,06,13,14.20
2015,05,29,06,14,14.20
2015,05,29,06,15,14.10
2015,05,29,06,16,14.10
2015,05,29,06,17,14.10
2015,05,29,06,18,14.00
2015,05,29,06,19,14.00
2015,05,29,06,20,14.00
2015,05,29,06,21,13.90
2015,05,29,06,22,13.90
2015,05,29,06,23,13.90
2015,05,29,06,24,13.80
2015,05,29,06,25,13.80
2015,05,29,06,26,13.80
2015,05,29,06,27,13.80
2015,05,29,06,28,13.80
2015,05,29,06,29,13.70
2015,05,29,06,30,13.70
2015,05,29,06,31,13.70
2015,05,29,06,32,13.70
2015,05,29,06,33,13.70
2015,05,29,06,34,13.70
2015,05,29,06,35,13.70
2015,05,29,06,36,13.70
2015,05,29,06,37,13.70
2015,05,29,06,38,13.60
2015,05,29,06,39,13.60
2015,05,29,06,40,13.60
2015,05,29,06,41,13.60
2015,05,29,06,42,13.60
2015,05,29,06,43,13.60
2015,05,29,06,44,13.60
2015,05,29,06,45,13.60
2015,05,29,06,46,13.60
2015,05,29,06,47,13.60
2015,05,29,06,48,13.60
2015,05,29,06,49,13.60
2015,05,29,06,50,13.60
2015,05,29,06,51,13.60
2015,05,29,06,52,13.60
2015,05,29,06,53,13.60
2015,05,29,06,54,13.70
2015,05,29,06,55,13.70
2015,05,29,06,56,13.70
2015,05,29,06,57,13.70
2015,05,29,06,58,13.70
2015,05,29,06,59,13.70
2015,05,29,07,00,13.70
2015,05,29,07,01,13.70
2015,05,29,07,02,13.80
2015,05,29,07,03,13.80
2015,05,29,07,04,13.80
2015,05,29,07,05,13.80
2015,05,29,07,06,13.80
2015,05,29,07,07,13.90
2015,05,29,07,08,13.90
2015,05,29,07,09,13.90
2015,05,29,07,10,14.00
2015,05,29,07,11,14.00
2015,05,29,07,12,14.00
2015,05,29,07,13,14.10
2015,05,29,07,14,14.10
2015,05,29,07,15,14.10
2015,05,29,07,16,14.20
2015,05,29,07,17,14.20
2015,05,29,07,18,14.20
2015,05,29,07,19,14.30
2015,05,29,07,20,14.30
2015,05,29,07,21,14.30
2015,05,29,07,22,14.30
2015,05,29,07,23,14.40
2015,05,29,07,24,14.40
2015,05,29,07,25,14.40
2015,05,29,07,26,14.50
2015,05,29,07,27,14.50
2015,05,29,07,28,14.50
2015,05,29,07,29,14.60
2015,05,29,07,30,14.60
2015,05,29,07,31,14.60
2015,05,29,07,32,14.60
2015,05,29,07,33,14.70
2015,05,29,07,34,14.70
2015,05,29,07,35,14.70
2015,05,29,07,36,14.70
2015,05,29,07,37,14.80
2015,05,29,07,38,14.80
2015,05,29,07,39,14.80
2015,05,29,07,40,14.80
2015,05,29,07,41,14.90
2015,05,29,07,42,14.90
2015,05,29,07,43,14.90
2015,05,29,07,44,15.00
2015,05,29,07,45,15.00
2015,05,29,07,46,15.10
2015,05,29,07,47,15.10
2015,05,29,07,48,15.10
2015,05,29,07,49,15.20
2015,05,29,07,50,15.20
2015,05,29,07,51,15.20
2015,05,29,07,52,15.20
2015,05,29,07,53,15.30
2015,05,29,07,54,15.30
2015,05,29,07,55,15.30
2015,05,29,07,56,15.40
2015,05,29,07,57,15.40
2015,05,29,07,58,15.40
2015,05,29,07,59,15.50
2015,05,29,08,00,15.50
2015,05,29,08,01,15.60
2015,05,29,08,02,15.60
2015,05,29,08,03,15.70
2015,05,29,08,04,15.70
2015,05,29,08,05,15.80
2015,05,29,08,06,15.80
2015,05,29,08,07,15.90
2015,05,29,08,08,15.90
2015,05,29,08,09,16.00
2015,05,29,08,10,16.00
2015,05,29,08,11,16.10
2015,05,29,08,12,16.10
2015,05,29,08,13,16.20
2015,05,29,08,14,16.20
2015,05,29,08,15,16.20
2015,05,29,08,16,16.30
2015,05,29,08,17,16.40
2015,05,29,08,18,16.40
2015,05,29,08,19,16.50
2015,05,29,08,20,16.50
2015,05,29,08,21,16.60
2015,05,29,08,22,16.60
2015,05,29,08,23,16.60
2015,05,29,08,24,16.60
2015,05,29,08,25,16.60
2015,05,29,08,26,16.60
2015,05,29,08,27,16.60
2015,05,29,08,28,16.50
2015,05,29,08,29,16.50
2015,05,29,08,30,16.40
2015,05,29,08,31,16.40
2015,05,29,08,32,16.40
2015,05,29,08,33,16.40
2015,05,29,08,34,16.40
2015,05,29,08,35,16.30
2015,05,29,08,36,16.30
2015,05,29,08,37,16.30
2015,05,29,08,38,16.30
2015,05,29,08,39,16.30
2015,05,29,08,40,16.30
2015,05,29,08,41,16.30
2015,05,29,08,42,16.30
2015,05,29,08,43,16.30
2015,05,29,08,44,16.30
2015,05,29,08,45,16.30
2015,05,29,08,46,16.30
2015,05,29,08,47,16.30
2015,05,29,08,48,16.30
2015,05,29,08,49,16.40
2015,05,29,08,50,16.40
2015,05,29,08,51,16.40
2015,05,29,08,52,16.40
2015,05,29,08,53,16.40
2015,05,29,08,54,16.40
2015,05,29,08,55,16.40
2015,05,29,08,56,16.50
2015,05,29,08,57,16.50
2015,05,29,08,58,16.50
2015,05,29,08,59,16.60
2015,05,29,09,00,16.60
2015,05,29,09,01,16.70
2015,05,29,09,02,16.70
2015,05,29,09,03,16.70
2015,05,29,09,04,16.70
2015,05,29,09,05,16.80
2015,05,29,09,06,16.80
2015,05,29,09,07,16.80
2015,05,29,09,08,16.80
2015,05,29,09,09,16.80
2015,05,29,09,10,16.90
2015,05,29,09,11,16.90
2015,05,29,09,12,17.00
2015,05,29,09,13,17.00
2015,05,29,09,14,17.10
2015,05,29,09,15,17.20
2015,05,29,09,16,17.20
2015,05,29,09,17,17.30
2015,05,29,09,18,17.30
2015,05,29,09,19,17.40
2015,05,29,09,20,17.50
2015,05,29,09,21,17.60
2015,05,29,09,22,17.70
2015,05,29,09,23,17.70
2015,05,29,09,24,17.80
2015,05,29,09,25,17.80
2015,05,29,09,26,17.90
2015,05,29,09,27,18.00
2015,05,29,09,28,18.00
2015,05,29,09,29,18.10
2015,05,29,09,30,18.10
2015,05,29,09,31,18.20
2015,05,29,09,32,18.20
2015,05,29,09,33,18.20
2015,05,29,09,34,18.20
2015,05,29,09,35,18.30
2015,05,29,09,36,18.30
2015,05,29,09,37,18.30
2015,05,29,09,38,18.30
2015,05,29,09,39,18.30
2015,05,29,09,40,18.40
2015,05,29,09,41,18.40
2015,05,29,09,42,18.50
2015,05,29,09,43,18.60
2015,05,29,09,44,18.60
2015,05,29,09,45,18.70
2015,05,29,09,46,18.70
2015,05,29,09,47,18.80
2015,05,29,09,48,18.90
2015,05,29,09,49,19.00
2015,05,29,09,50,19.00
2015,05,29,09,51,19.10
2015,05,29,09,52,19.10
2015,05,29,09,53,19.20
2015,05,29,09,54,19.20
2015,05,29,09,55,19.30
2015,05,29,09,56,19.30
2015,05,29,09,57,19.30
2015,05,29,09,58,19.40
2015,05,29,09,59,19.40
2015,05,29,10,00,19.50
2015,05,29,10,01,19.60
2015,05,29,10,02,19.60
2015,05,29,10,03,19.60
2015,05,29,10,04,19.60
2015,05,29,10,05,19.70
2015,05,29,10,06,19.80
2015,05,29,10,07,19.80
2015,05,29,10,08,19.80
2015,05,29,10,09,19.90
2015,05,29,10,10,19.90
2015,05,29,10,11,20.00
2015,05,29,10,12,20.00
2015,05,29,10,13,20.10
2015,05,29,10,14,20.10
2015,05,29,10,15,20.10
2015,05,29,10,16,20.10
2015,05,29,10,17,20.10
2015,05,29,10,18,20.10
2015,05,29,10,19,20.10
2015,05,29,10,20,20.00
2015,05,29,10,21,20.00
2015,05,29,10,22,20.00
2015,05,29,10,23,20.00
2015,05,29,10,24,20.00
2015,05,29,10,25,20.00
2015,05,29,10,26,20.00
2015,05,29,10,27,20.00
2015,05,29,10,28,20.00
2015,05,29,10,29,20.10
2015,05,29,10,30,20.10
2015,05,29,10,31,20.10
2015,05,29,10,32,20.10
2015,05,29,10,33,20.10
2015,05,29,10,34,20.10
2015,05,29,10,35,20.10
2015,05,29,10,36,20.10
2015,05,29,10,37,20.00
2015,05,29,10,38,20.00
2015,05,29,10,39,20.00
2015,05,29,10,40,20.00
2015,05,29,10,41,20.10
2015,05,29,10,42,20.10
2015,05,29,10,43,20.10
2015,05,29,10,44,20.10
2015,05,29,10,45,20.20
2015,05,29,10,46,20.10
2015,05,29,10,47,20.10
2015,05,29,10,48,20.10
2015,05,29,10,49,20.00
2015,05,29,10,50,20.00
2015,05,29,10,51,19.90
2015,05,29,10,52,19.80
2015,05,29,10,53,19.80
2015,05,29,10,54,19.70
2015,05,29,10,55,19.60
2015,05,29,10,56,19.50
2015,05,29,10,57,19.50
2015,05,29,10,58,19.50
2015,05,29,10,59,19.50
2015,05,29,11,00,19.50
2015,05,29,11,01,19.50
2015,05,29,11,02,19.60
2015,05,29,11,03,19.60
2015,05,29,11,04,19.70
2015,05,29,11,05,19.70
2015,05,29,11,06,19.70
2015,05,29,11,07,19.70
2015,05,29,11,08,19.70
2015,05,29,11,09,19.70
2015,05,29,11,10,19.70
2015,05,29,11,11,19.70
2015,05,29,11,12,19.60
2015,05,29,11,13,19.50
2015,05,29,11,14,19.40
2015,05,29,11,15,19.30
2015,05,29,11,16,19.20
2015,05,29,11,17,19.10
2015,05,29,11,18,19.10
2015,05,29,11,19,19.10
2015,05,29,11,20,19.10
2015,05,29,11,21,19.10
2015,05,29,11,22,19.20
2015,05,29,11,23,19.20
2015,05,29,11,24,19.20
2015,05,29,11,25,19.20
2015,05,29,11,26,19.20
2015,05,29,11,27,19.30
2015,05,29,11,28,19.30
2015,05,29,11,29,19.30
2015,05,29,11,30,19.30
2015,05,29,11,31,19.30
2015,05,29,11,32,19.30
2015,05,29,11,33,19.30
2015,05,29,11,34,19.40
2015,05,29,11,35,19.30
2015,05,29,11,36,19.30
2015,05,29,11,37,19.30
2015,05,29,11,38,19.30
2015,05,29,11,39,19.20
2015,05,29,11,40,19.20
2015,05,29,11,41,19.10
2015,05,29,11,42,19.00
2015,05,29,11,43,19.00
2015,05,29,11,44,18.90
2015,05,29,11,45,18.90
2015,05,29,11,46,18.90
2015,05,29,11,47,18.80
2015,05,29,11,48,18.80
2015,05,29,11,49,18.80
2015,05,29,11,50,18.80
2015,05,29,11,51,18.80
2015,05,29,11,52,18.80
2015,05,29,11,53,18.90
2015,05,29,11,54,18.90
2015,05,29,11,55,19.00
2015,05,29,11,56,19.00
2015,05,29,11,57,19.10
2015,05,29,11,58,19.10
2015,05,29,11,59,19.10
2015,05,29,12,00,19.10
2015,05,29,12,01,19.20
2015,05,29,12,02,19.20
2015,05,29,12,03,19.20
2015,05,29,12,04,19.20
2015,05,29,12,05,19.20
2015,05,29,12,06,19.20
2015,05,29,12,07,19.20
2015,05,29,12,08,19.20
2015,05,29,12,09,19.20
2015,05,29,12,10,19.10
2015,05,29,12,11,19.10
2015,05,29,12,12,19.10
2015,05,29,12,13,19.10
2015,05,29,12,14,19.10
2015,05,29,12,15,19.10
2015,05,29,12,16,19.20
2015,05,29,12,17,19.20
2015,05,29,12,18,19.30
2015,05,29,12,19,19.40
2015,05,29,12,20,19.50
2015,05,29,12,21,19.60
2015,05,29,12,22,19.60
2015,05,29,12,23,19.70
2015,05,29,12,24,19.70
2015,05,29,12,25,19.70
2015,05,29,12,26,19.80
2015,05,29,12,27,19.80
2015,05,29,12,28,19.80
2015,05,29,12,29,19.80
2015,05,29,12,30,19.70
2015,05,29,12,31,19.70
2015,05,29,12,32,19.60
2015,05,29,12,33,19.60
2015,05,29,12,34,19.50
2015,05,29,12,35,19.60
2015,05,29,12,36,19.60
2015,05,29,12,37,19.60
2015,05,29,12,38,19.60
2015,05,29,12,39,19.60
2015,05,29,12,40,19.50
2015,05,29,12,41,19.50
2015,05,29,12,42,19.40
2015,05,29,12,43,19.50
2015,05,29,12,44,19.40
2015,05,29,12,45,19.40
2015,05,29,12,46,19.40
2015,05,29,12,47,19.40
2015,05,29,12,48,19.40
2015,05,29,12,49,19.40
2015,05,29,12,50,19.50
2015,05,29,12,51,19.40
2015,05,29,12,52,19.50
2015,05,29,12,53,19.50
2015,05,29,12,54,19.50
2015,05,29,12,55,19.50
2015,05,29,12,56,19.50
2015,05,29,12,57,19.50
2015,05,29,12,58,19.60
2015,05,29,12,59,19.60
2015,05,29,13,00,19.60
2015,05,29,13,01,19.60
2015,05,29,13,02,19.70
2015,05,29,13,03,19.70
2015,05,29,13,04,19.80
2015,05,29,13,05,19.90
2015,05,29,13,06,20.00
2015,05,29,13,07,20.10
2015,05,29,13,08,20.20
2015,05,29,13,09,20.30
2015,05,29,13,10,20.30
2015,05,29,13,11,20.40
2015,05,29,13,12,20.40
2015,05,29,13,13,20.50
2015,05,29,13,14,20.50
2015,05,29,13,15,20.60
2015,05,29,13,16,20.60
2015,05,29,13,17,20.60
2015,05,29,13,18,20.60
2015,05,29,13,19,20.70
2015,05,29,13,20,20.70
2015,05,29,13,21,20.70
2015,05,29,13,22,20.70
2015,05,29,13,23,20.70
2015,05,29,13,24,20.70
2015,05,29,13,25,20.70
2015,05,29,13,26,20.70
2015,05,29,13,27,20.80
2015,05,29,13,28,20.90
2015,05,29,13,29,20.90
2015,05,29,13,30,20.90
2015,05,29,13,31,20.80
2015,05,29,13,32,20.70
2015,05,29,13,33,20.70
2015,05,29,13,34,20.70
2015,05,29,13,35,20.60
2015,05,29,13,36,20.60
2015,05,29,13,37,20.50
2015,05,29,13,38,20.50
2015,05,29,13,39,20.50
2015,05,29,13,40,20.50
2015,05,29,13,41,20.50
2015,05,29,13,42,20.40
2015,05,29,13,43,20.40
2015,05,29,13,44,20.40
2015,05,29,13,45,20.30
2015,05,29,13,46,20.30
2015,05,29,13,47,20.20
2015,05,29,13,48,20.20
2015,05,29,13,49,20.10
2015,05,29,13,50,20.10
2015,05,29,13,51,20.10
2015,05,29,13,52,20.10
2015,05,29,13,53,20.10
2015,05,29,13,54,20.20
2015,05,29,13,55,20.20
2015,05,29,13,56,20.20
2015,05,29,13,57,20.20
2015,05,29,13,58,20.20
2015,05,29,13,59,20.20
2015,05,29,14,00,20.20
2015,05,29,14,01,20.10
2015,05,29,14,02,20.10
2015,05,29,14,03,20.10
2015,05,29,14,04,20.20
2015,05,29,14,05,20.20
2015,05,29,14,06,20.30
2015,05,29,14,07,20.30
2015,05,29,14,08,20.40
2015,05,29,14,09,20.50
2015,05,29,14,10,20.60
2015,05,29,14,11,20.60
2015,05,29,14,12,20.70
2015,05,29,14,13,20.80
2015,05,29,14,14,20.80
2015,05,29,14,15,20.90
2015,05,29,14,16,21.00
2015,05,29,14,17,21.00
2015,05,29,14,18,21.10
2015,05,29,14,19,21.10
2015,05,29,14,20,21.10
2015,05,29,14,21,21.00
2015,05,29,14,22,21.00
2015,05,29,14,23,20.90
2015,05,29,14,24,20.90
2015,05,29,14,25,20.80
2015,05,29,14,26,20.80
2015,05,29,14,27,20.80
2015,05,29,14,28,20.90
2015,05,29,14,29,20.90
2015,05,29,14,30,20.90
2015,05,29,14,31,20.90
2015,05,29,14,32,20.90
2015,05,29,14,33,21.00
2015,05,29,14,34,21.10
2015,05,29,14,35,21.10
2015,05,29,14,36,21.00
2015,05,29,14,37,21.00
2015,05,29,14,38,21.10
2015,05,29,14,39,21.10
2015,05,29,14,40,21.20
2015,05,29,14,41,21.20
2015,05,29,14,42,21.30
2015,05,29,14,43,21.50
2015,05,29,14,44,21.60
2015,05,29,14,45,21.60
2015,05,29,14,46,21.70
2015,05,29,14,47,21.70
2015,05,29,14,48,21.70
2015,05,29,14,49,21.70
2015,05,29,14,50,21.80
2015,05,29,14,51,21.80
2015,05,29,14,52,21.80
2015,05,29,14,53,21.80
2015,05,29,14,54,21.70
2015,05,29,14,55,21.70
2015,05,29,14,56,21.60
2015,05,29,14,57,21.60
2015,05,29,14,58,21.50
2015,05,29,14,59,21.50
2015,05,29,15,00,21.40
2015,05,29,15,01,21.30
2015,05,29,15,02,21.30
2015,05,29,15,03,21.30
2015,05,29,15,04,21.30
2015,05,29,15,05,21.40
2015,05,29,15,06,21.50
2015,05,29,15,07,21.60
2015,05,29,15,08,21.60
2015,05,29,15,09,21.80
2015,05,29,15,10,21.90
2015,05,29,15,11,21.90
2015,05,29,15,12,21.90
2015,05,29,15,13,21.90
2015,05,29,15,14,21.80
2015,05,29,15,15,21.80
2015,05,29,15,16,21.80
2015,05,29,15,17,21.80
2015,05,29,15,18,21.80
2015,05,29,15,19,21.90
2015,05,29,15,20,21.90
2015,05,29,15,21,21.90
2015,05,29,15,22,22.00
2015,05,29,15,23,22.00
2015,05,29,15,24,22.00
2015,05,29,15,25,22.10
2015,05,29,15,26,22.20
2015,05,29,15,27,22.30
2015,05,29,15,28,22.40
2015,05,29,15,29,22.50
2015,05,29,15,30,22.60
2015,05,29,15,31,22.70
2015,05,29,15,32,22.80
2015,05,29,15,33,22.90
2015,05,29,15,34,22.90
2015,05,29,15,35,22.90
2015,05,29,15,36,23.00
2015,05,29,15,37,23.00
2015,05,29,15,38,23.10
2015,05,29,15,39,23.10
2015,05,29,15,40,23.10
2015,05,29,15,41,23.10
2015,05,29,15,42,23.10
2015,05,29,15,43,23.10
2015,05,29,15,44,23.20
2015,05,29,15,45,23.20
2015,05,29,15,46,23.20
2015,05,29,15,47,23.30
2015,05,29,15,48,23.30
2015,05,29,15,49,23.40
2015,05,29,15,50,23.40
2015,05,29,15,51,23.40
2015,05,29,15,52,23.40
2015,05,29,15,53,23.40
2015,05,29,15,54,23.40
2015,05,29,15,55,23.30
2015,05,29,15,56,23.30
2015,05,29,15,57,23.40
2015,05,29,15,58,23.40
2015,05,29,15,59,23.50
2015,05,29,16,00,23.50
2015,05,29,16,01,23.60
2015,05,29,16,02,23.70
2015,05,29,16,03,23.80
2015,05,29,16,04,23.80
2015,05,29,16,05,23.80
2015,05,29,16,06,23.90
2015,05,29,16,07,23.90
2015,05,29,16,08,23.90
2015,05,29,16,09,23.90
2015,05,29,16,10,23.90
2015,05,29,16,11,23.90
2015,05,29,16,12,24.00
2015,05,29,16,13,24.00
2015,05,29,16,14,24.10
2015,05,29,16,15,24.20
2015,05,29,16,16,24.20
2015,05,29,16,17,24.20
2015,05,29,16,18,24.30
2015,05,29,16,19,24.30
2015,05,29,16,20,24.40
2015,05,29,16,21,24.40
2015,05,29,16,22,24.40
2015,05,29,16,23,24.40
2015,05,29,16,24,24.40
2015,05,29,16,25,24.40
2015,05,29,16,26,24.30
2015,05,29,16,27,24.30
2015,05,29,16,28,24.30
2015,05,29,16,29,24.20
2015,05,29,16,30,24.20
2015,05,29,16,31,24.20
2015,05,29,16,32,24.10
2015,05,29,16,33,24.10
2015,05,29,16,34,24.10
2015,05,29,16,35,24.20
2015,05,29,16,36,24.20
2015,05,29,16,37,24.20
2015,05,29,16,38,24.20
2015,05,29,16,39,24.20
2015,05,29,16,40,24.20
2015,05,29,16,41,24.30
2015,05,29,16,42,24.30
2015,05,29,16,43,24.40
2015,05,29,16,44,24.50
2015,05,29,16,45,24.60
2015,05,29,16,46,24.60
2015,05,29,16,47,24.70
2015,05,29,16,48,24.70
2015,05,29,16,49,24.70
2015,05,29,16,50,24.70
2015,05,29,16,51,24.70
2015,05,29,16,52,24.70
2015,05,29,16,53,24.70
2015,05,29,16,54,24.80
2015,05,29,16,55,24.80
2015,05,29,16,56,24.80
2015,05,29,16,57,24.80
2015,05,29,16,58,24.90
2015,05,29,16,59,24.90
2015,05,29,17,00,24.90
2015,05,29,17,01,24.80
2015,05,29,17,02,24.80
2015,05,29,17,03,24.70
2015,05,29,17,04,24.60
2015,05,29,17,05,24.50
2015,05,29,17,06,24.40
2015,05,29,17,07,24.30
2015,05,29,17,08,24.30
2015,05,29,17,09,24.20
2015,05,29,17,10,24.20
2015,05,29,17,11,24.10
2015,05,29,17,12,24.00
2015,05,29,17,13,24.00
2015,05,29,17,14,24.00
2015,05,29,17,15,24.00
2015,05,29,17,16,24.00
2015,05,29,17,17,24.00
2015,05,29,17,18,24.00
2015,05,29,17,19,24.00